Regional Weather Roundup
Issued by NWS

Home | Current Version | Previous Version | Graphics & Text | Print | Product List | Glossary On
Versions: 1 2 3 4 5 6 7 8 9 10 11 12 13 14 15 16 17 18 19 20 21 22 23 24 25 26 27 28 29 30 31 32 33 34 35 36 37 38 39 40 41 42 43 44 45 46 47 48 49 50
000
ASUS43 KBIS 260910
RWRND
NORTH DAKOTA REGIONAL WEATHER ROUNDUP
NATIONAL WEATHER SERVICE EASTERN NORTH DAKOTA/GRAND FORKS ND
400 AM CDT SAT MAY 26 2018

  NOTE: "FAIR" INDICATES FEW OR NO CLOUDS BELOW 12,000 FEET WITH NO
  SIGNIFICANT WEATHER AND/OR OBSTRUCTIONS TO VISIBILITY.

NDZ001>003-009>011-017-261000-
...NORTHWEST NORTH DAKOTA...

CITY           SKY/WX    TMP DP  RH WIND       PRES   REMARKS
WILLISTON      FAIR      52  48  86 CALM      29.74S
MINOT          FAIR      62  47  57 SW8       29.70S
MINOT AFB      FAIR      58  47  67 W8        29.69R
$$

NDZ018>021-031>035-040>046-261000-
...SOUTHWEST NORTH DAKOTA...

CITY           SKY/WX    TMP DP  RH WIND       PRES   REMARKS
BISMARCK       FAIR      60  51  72 CALM      29.74S
DICKINSON      FAIR      56  48  74 W9        29.79R
GARRISON         N/A     57  46  66 CALM      29.73R
HETTINGER      FAIR      52  47  83 CALM      29.83S
$$

NDZ004>008-012>016-024-026-027-054-261000-
...NORTHEAST NORTH DAKOTA...

CITY           SKY/WX    TMP DP  RH WIND       PRES   REMARKS
GRAND FORKS    FAIR      59  51  75 SW3       29.61S
GRAND FORKS AF FAIR      60  51  72 SW6       29.62S
DEVILS LAKE    FAIR      59  53  80 W7        29.67R
$$

NDZ022-023-025-028>030-036>039-047>053-261000-
...SOUTHEAST NORTH DAKOTA...

CITY           SKY/WX    TMP DP  RH WIND       PRES   REMARKS
JAMESTOWN      FAIR      62  53  72 CALM      29.69R
FARGO          FAIR      62  51  67 SW3       29.64R
WAHPETON       FAIR      61  45  55 W6        29.67R
$$




USA.gov is the U.S. government's official web portal to all federal, state and local government web resources and services.